Location: Prague
(50.0830°N, 14.4670°E)
Time: 08:24:18
(UTC+01:00)

XW-2F - Pass Details

Date: 30 November 2021
Orbit: 494 x 515 km, 97.5° (Epoch: 18 January)

Event Time Altitude Azimuth Distance (km) Brightness Sun altitude
Rises 18:21:04 0° 205° (SSW) 2,597 ? -21.2°
Reaches altitude 10° 18:23:41 10° 225° (SW) 1,724 ? -21.7°
Maximum altitude 18:26:14 18° 269° (W) 1,327 ? -22.1°
Drops below altitude 10° 18:28:49 10° 312° (NW) 1,744 ? -22.5°
Sets 18:31:30 0° 333° (NNW) 2,642 ? -22.9°
